Wind_Speed
37 38 38 39 39 39 40 40 41 41 40 41 42 42 42 43 44 44 44 45 45 45 45 46 46 46 47 48 48 48 48 48 48 48 48 48 48 48
35 35 36 37 39 39 39 40 41 42 42 41 42 42 43 43 43 43 42 43 44 43 43 44 45 45 46 46 46 46 46 46 46 45 45 45 45 45
33 34 35 35 36 37 38 38 39 40 40 41 41 41 41 42 42 42 42 42 42 42 43 43 43 43 44 43 43 42 42 41 42 42 42 42 42 43
32 32 33 34 34 35 35 36 37 38 38 39 39 39 40 40 41 41 41 40 41 41 42 41 41 41 41 40 39 38 37 37 37 38 38 38 39 39
30 30 31 32 32 33 33 34 35 36 36 37 37 37 38 39 39 39 38 38 38 38 38 38 37 37 36 35 35 35 35 35 35 34 34 35 35 36
27 28 29 29 30 31 32 33 33 34 35 35 35 36 36 35 35 35 35 35 35 35 34 33 33 32 32 31 31 31 32 32 33 33 34 34 34 34
26 27 28 28 29 30 30 31 31 32 32 32 33 33 33 32 31 32 32 32 32 31 30 30 29 29 29 28 29 29 29 30 31 31 31 31 31 31
26 26 27 28 29 29 29 30 30 29 29 29 29 29 29 28 29 29 29 29 28 28 27 26 26 25 25 25 26 27 27 27 28 28 28 28 28 28
25 25 26 27 28 28 28 28 28 28 28 27 27 26 26 26 26 26 26 25 24 23 22 22 23 23 23 24 24 24 25 25 25 25 25 25 26 26
25 25 25 25 26 26 26 26 26 25 25 24 24 23 23 23 23 23 21 20 20 19 19 20 21 21 22 22 22 23 23 23 23 23 23 23 23 24
24 24 24 24 24 24 24 24 23 22 21 21 21 21 20 20 19 19 18 17 17 17 17 18 19 19 19 19 19 20 20 21 22 21 22 22 22 22
22 22 22 21 21 21 21 21 20 19 19 19 19 18 18 17 16 15 15 15 15 15 16 16 17 17 17 16 16 17 18 19 19 20 21 22 22 22
20 20 20 20 19 18 18 18 18 17 17 17 17 16 15 14 14 13 13 13 14 14 14 14 14 15 14 14 15 16 17 18 19 19 20 21 21 22
18 18 18 17 17 17 16 16 15 15 15 15 14 13 12 12 11 11 11 12 12 12 12 12 12 12 12 13 15 16 17 18 18 19 20 20 21 21
17 16 16 16 16 15 14 13 13 13 13 12 11 11 10 10 9 9 9 9 9 10 10 10 10 10 12 13 14 15 16 17 18 19 20 20 20 21
14 14 14 14 13 12 12 12 11 11 11 10 10 9 9 8 7 7 7 7 7 8 8 8 9 10 11 12 13 15 16 17 18 19 20 20 21 22
12 11 11 11 11 11 11 11 10 10 9 9 8 8 7 7 6 6 6 5 5 6 6 7 8 9 10 11 12 14 16 17 18 19 20 21 22 22
9 9 9 9 9 9 9 9 9 8 8 7 6 6 5 5 4 4 4 4 4 5 6 7 8 9 10 11 12 14 15 17 18 19 20 21 22 23
7 7 8 8 8 8 8 8 8 7 6 5 4 4 4 3 3 2 2 3 3 5 6 7 8 9 10 11 12 14 15 16 18 19 20 21 22 22
6 6 6 6 6 6 6 6 6 5 4 3 3 2 2 1 1 1 2 3 4 5 6 7 8 9 10 11 13 14 15 16 17 19 20 21 22 22
6 6 5 5 5 5 5 4 4 3 2 2 1 0 1 1 1 2 3 3 4 5 6 7 8 9 11 12 12 14 15 16 18 19 20 21 22 23
5 5 5 5 5 4 4 3 3 2 1 1 1 1 2 2 2 2 3 4 4 5 6 7 9 10 10 11 12 14 15 17 18 19 20 21 22 23
6 5 5 5 4 4 3 3 2 2 2 2 2 2 2 2 3 3 4 4 5 6 7 8 9 10 10 12 13 14 15 16 18 19 20 21 22 23
Wind_Direction
262 265 268 270 272 273 274 275 278 280 281 282 284 286 287 287 289 289 290 290 290 290 291 291 291 292 292 291 290 290 289 288 288 288 287 286 285 285
266 268 270 271 272 274 275 277 280 283 285 285 286 286 287 288 289 290 290 291 292 292 292 293 293 293 293 292 291 291 290 290 290 289 289 288 288 287
270 272 273 273 274 276 278 281 283 285 286 287 287 288 289 291 291 291 292 293 293 293 294 294 294 294 293 294 294 294 294 294 293 293 292 290 290 289
273 274 275 276 277 278 280 282 284 286 287 288 290 290 291 291 292 293 294 295 294 295 296 296 297 296 296 296 296 296 296 296 296 295 295 294 294 294
275 276 277 278 280 282 283 284 285 287 288 289 290 291 291 292 292 293 294 295 297 298 298 299 300 301 300 301 300 299 298 299 299 300 300 300 299 298
277 279 281 283 284 285 286 286 287 289 290 290 291 291 291 293 293 294 296 298 300 301 301 301 302 302 303 304 304 303 303 303 302 302 303 302 302 302
282 284 286 287 288 289 288 289 290 291 292 292 291 292 292 293 294 296 298 300 301 301 303 304 304 305 306 307 308 309 309 309 309 308 308 308 308 307
285 287 288 287 288 289 289 290 291 293 293 293 294 294 295 295 296 297 300 302 303 304 304 305 307 308 309 310 311 312 313 314 314 314 314 314 314 314
287 288 288 288 289 290 291 292 291 292 294 296 296 297 297 297 299 301 302 303 304 306 307 309 311 312 313 314 315 317 319 320 321 321 320 320 320 320
288 289 290 291 293 293 293 293 293 294 296 298 297 297 298 299 300 301 302 303 305 307 310 312 314 316 317 318 320 323 325 326 327 327 327 328 329 328
288 290 292 293 292 292 292 292 293 294 295 297 297 297 299 300 299 301 303 305 307 310 312 314 316 319 321 323 325 327 330 332 333 334 336 336 336 336
290 291 292 291 290 291 291 291 292 294 296 298 299 299 300 300 300 303 305 308 310 312 314 316 320 323 327 329 331 334 336 338 340 341 343 344 345 345
288 290 291 290 291 292 292 292 292 294 296 297 298 299 299 299 300 302 304 307 311 314 317 321 326 329 333 337 340 342 344 347 348 349 350 351 352 353
287 290 292 292 292 293 293 293 293 293 296 297 297 298 298 299 300 302 304 308 312 317 323 328 333 337 342 346 348 350 352 354 355 356 357 356 356 357
289 290 292 293 294 294 294 295 296 297 298 298 298 299 299 299 302 304 307 311 315 321 328 334 341 348 352 355 356 356 357 358 359 359 -0 1 1 2
290 293 294 296 297 297 297 298 299 298 298 298 299 300 301 302 303 306 311 315 320 327 335 343 350 356 360 0 1 1 2 2 2 3 4 5 5 5
293 295 297 299 299 300 301 301 300 297 295 295 297 299 301 301 301 306 312 319 328 338 346 351 354 359 1 2 3 4 5 5 7 8 9 11 11 11
298 299 301 301 301 301 302 302 302 300 297 294 295 298 299 299 304 311 322 333 348 358 3 5 5 5 6 7 7 7 8 9 10 11 12 12 12 12
308 308 308 307 307 307 305 303 302 300 298 297 298 299 301 303 309 322 342 356 9 14 15 14 13 12 12 11 11 11 11 12 13 13 12 12 11 10
323 319 317 316 315 315 316 312 307 305 302 304 304 305 309 325 0 21 22 22 25 24 21 19 17 17 16 16 15 14 13 13 13 12 12 11 10 10
336 332 327 325 325 328 330 328 324 318 314 313 316 355 65 78 65 53 43 37 34 28 25 23 21 20 20 19 17 15 14 14 13 11 10 9 8 8
353 348 343 340 341 344 347 348 347 351 14 65 100 104 104 91 78 68 55 44 37 32 29 26 23 22 20 18 16 15 14 12 11 10 8 7 7 7
15 12 10 10 10 13 18 22 32 55 74 93 106 107 100 91 85 74 57 46 40 34 30 26 23 21 18 16 15 13 12 11 9 8 6 5 5 5
Height
5779 5780 5780 5781 5781 5781 5781 5780 5780 5779 5779 5778 5776 5774 5772 5770 5768 5766 5764 5761 5758 5754 5751 5748 5745 5741 5738 5734 5730 5727 5723 5719 5715 5712 5708 5705 5701 5698
5771 5771 5772 5772 5772 5772 5772 5771 5770 5769 5768 5767 5766 5764 5762 5760 5758 5755 5752 5750 5746 5743 5740 5736 5733 5729 5725 5722 5718 5714 5710 5706 5702 5699 5695 5691 5688 5685
5763 5764 5764 5764 5763 5763 5762 5761 5760 5759 5758 5757 5755 5753 5751 5749 5747 5744 5742 5739 5735 5732 5729 5725 5721 5717 5713 5710 5706 5702 5698 5694 5691 5687 5683 5680 5676 5672
5755 5755 5755 5755 5755 5754 5754 5753 5752 5750 5749 5747 5746 5744 5741 5739 5736 5734 5732 5729 5726 5722 5718 5714 5710 5706 5703 5699 5695 5692 5688 5684 5681 5677 5673 5669 5665 5661
5747 5747 5747 5747 5746 5746 5745 5744 5743 5741 5739 5738 5736 5734 5732 5729 5727 5724 5722 5719 5716 5713 5709 5705 5701 5697 5693 5689 5686 5682 5678 5675 5672 5668 5663 5659 5655 5651
5740 5739 5739 5739 5738 5737 5736 5735 5734 5732 5730 5729 5727 5725 5723 5720 5718 5716 5713 5710 5707 5703 5700 5697 5693 5689 5685 5682 5678 5674 5670 5667 5663 5659 5655 5651 5646 5642
5733 5732 5732 5731 5730 5729 5728 5726 5725 5723 5722 5720 5718 5716 5714 5712 5710 5707 5705 5702 5699 5696 5692 5690 5686 5683 5678 5675 5671 5667 5664 5660 5656 5652 5647 5643 5639 5634
5725 5725 5724 5724 5723 5721 5720 5718 5717 5716 5713 5712 5710 5708 5706 5704 5702 5700 5697 5695 5692 5689 5686 5683 5680 5677 5673 5670 5666 5662 5658 5654 5650 5645 5641 5636 5632 5627
5719 5718 5717 5716 5715 5713 5712 5711 5709 5708 5706 5705 5703 5700 5699 5697 5695 5693 5690 5688 5686 5683 5680 5678 5675 5672 5668 5665 5661 5657 5653 5649 5644 5640 5635 5631 5626 5622
5712 5711 5710 5709 5708 5706 5705 5704 5702 5701 5699 5698 5696 5694 5693 5691 5689 5687 5685 5683 5681 5678 5676 5673 5670 5667 5664 5660 5657 5653 5649 5645 5640 5636 5631 5626 5622 5617
5706 5705 5704 5702 5701 5700 5699 5697 5696 5694 5693 5691 5690 5688 5687 5685 5684 5682 5680 5678 5677 5675 5672 5670 5667 5664 5661 5657 5654 5650 5646 5642 5637 5633 5628 5623 5618 5614
5699 5698 5697 5696 5695 5694 5693 5691 5690 5689 5688 5686 5685 5683 5682 5680 5679 5678 5676 5674 5673 5671 5669 5666 5664 5661 5658 5655 5651 5648 5644 5639 5635 5630 5626 5621 5616 5611
5694 5693 5692 5691 5690 5688 5687 5686 5685 5684 5683 5681 5680 5679 5678 5677 5675 5674 5673 5671 5670 5668 5666 5664 5661 5658 5655 5653 5649 5646 5642 5638 5633 5629 5624 5619 5615 5610
5688 5688 5687 5686 5685 5684 5683 5681 5680 5679 5678 5677 5676 5675 5674 5673 5672 5671 5670 5669 5667 5665 5663 5661 5659 5656 5654 5651 5648 5644 5640 5636 5632 5628 5623 5619 5614 5609
5684 5683 5682 5681 5680 5679 5678 5677 5676 5675 5674 5674 5673 5672 5671 5670 5669 5669 5668 5666 5665 5663 5661 5659 5657 5655 5653 5650 5647 5644 5640 5636 5632 5628 5623 5618 5613 5609
5679 5679 5678 5677 5677 5676 5675 5674 5673 5672 5671 5671 5670 5669 5668 5668 5667 5667 5666 5665 5664 5662 5660 5658 5657 5655 5652 5650 5647 5643 5640 5636 5632 5627 5623 5618 5613 5608
5676 5675 5675 5674 5674 5673 5672 5671 5670 5669 5669 5668 5667 5667 5666 5666 5665 5665 5664 5663 5662 5661 5660 5658 5656 5654 5652 5649 5647 5643 5640 5636 5632 5628 5623 5618 5614 5609
5673 5673 5672 5671 5671 5670 5669 5668 5667 5666 5666 5665 5665 5665 5664 5664 5664 5664 5663 5662 5661 5660 5659 5658 5656 5654 5652 5649 5647 5644 5640 5636 5632 5628 5624 5619 5615 5610
5671 5671 5670 5669 5668 5667 5666 5666 5665 5664 5664 5663 5663 5663 5663 5663 5663 5663 5662 5662 5661 5660 5659 5657 5656 5654 5652 5649 5647 5644 5640 5637 5633 5629 5625 5620 5616 5611
5670 5669 5668 5667 5666 5666 5665 5664 5663 5663 5663 5662 5662 5663 5663 5663 5663 5662 5662 5662 5661 5660 5659 5658 5656 5654 5652 5650 5647 5644 5641 5637 5634 5630 5626 5621 5617 5613
5669 5668 5667 5666 5665 5665 5664 5663 5663 5662 5662 5662 5662 5662 5663 5663 5663 5662 5662 5662 5661 5660 5659 5658 5656 5654 5652 5650 5648 5645 5641 5638 5634 5630 5626 5622 5618 5613
5668 5667 5666 5665 5665 5664 5663 5663 5662 5662 5662 5662 5662 5663 5663 5663 5663 5663 5662 5662 5661 5660 5659 5658 5656 5655 5653 5651 5648 5645 5642 5638 5635 5631 5627 5623 5618 5613
5668 5667 5666 5666 5665 5664 5663 5663 5663 5663 5663 5663 5663 5663 5663 5663 5663 5663 5663 5662 5662 5661 5660 5658 5657 5655 5653 5651 5648 5645 5642 5639 5635 5632 5628 5623 5618 5614